Weather History for Peru, IL

Change the Weather History Date:

Sunday, October 7, 2012

  Actual Average Record
Temperature  
Mean Temperature 42 °F -  
Max Temperature 50 °F 67 °F 89 °F (2007)
Min Temperature 35 °F 41 °F 29 °F (1974)
Degree Days  
Heating Degree Days 22    
Moisture  
Dew Point 27 °F    
Average Humidity 55    
Maximum Humidity 75    
Minimum Humidity 33    
Precipitation  
Precipitation 0.00 in - - ()
Sea Level Pressure  
Sea Level Pressure 30.18 in    
Wind  
Wind Speed 7 mph (West)    
Max Wind Speed 16 mph    
Max Gust Speed 21 mph    
Visibility 10 miles    
Events      
Averages and records for this station are not official NWS values.
T = Trace of Precipitation, MM = Missing Value Source: NWS Daily Summary

Daily Weather History Graph

Daily Weather History Graph

Search for Another Location

Airport:

Trip Planner

Search our weather history database for the weather conditions in past years. The results will help you decide how hot, cold, wet, or windy it might be!

Date:

Astronomy

Oct. 07, 2012 Rise Set
Actual Time 7:00 AM CDT 6:27 PM CDT
Civil Twilight 6:32 AM CDT 6:55 PM CDT
Nautical Twilight 6:00 AM CDT 7:27 PM CDT
Astronomical Twilight 5:28 AM CDT 7:59 PM CDT
Moon 11:36 PM CDT (10/7) 1:40 PM CDT (10/7)
Length of Visible Light 12h 22m
Length of Day
11h 27m
Waning Gibbous, 56% of the Moon is Illuminated
Oct 7
Waning Gibbous
Oct 8
Last Quarter
Oct 15
New
Oct 21
First Quarter
Oct 29
Full

Hourly Weather History & Observations

Time (CDT) Temp. Windchill Dew Point Humidity Pressure Visibility Wind Dir Wind Speed Gust Speed Precip Events Conditions
12:15 AM 41.0 °F 36.4 °F 31.1 °F 68% 30.20 in 10.0 mi NW 6.9 mph - N/A   Overcast
12:35 AM 41.0 °F 36.4 °F 31.1 °F 68% 30.20 in 10.0 mi NW 6.9 mph - N/A   Overcast
12:55 AM 41.0 °F 35.8 °F 31.5 °F 69% 30.19 in 10.0 mi NW 8.1 mph - N/A   Overcast
1:15 AM 41.0 °F 36.4 °F 31.5 °F 69% 30.19 in 10.0 mi WNW 6.9 mph - N/A   Overcast
1:35 AM 41.0 °F 37.1 °F 31.3 °F 68% 30.20 in 10.0 mi WNW 5.8 mph - N/A   Overcast
1:55 AM 41.0 °F 36.4 °F 31.6 °F 69% 30.20 in 10.0 mi WNW 6.9 mph - N/A   Overcast
2:15 AM 40.5 °F 35.8 °F 31.6 °F 71% 30.20 in 10.0 mi WNW 6.9 mph - N/A   Overcast
2:35 AM 40.5 °F 35.8 °F 31.3 °F 70% 30.20 in 10.0 mi WNW 6.9 mph - N/A   Overcast
2:55 AM 40.3 °F 36.3 °F 31.1 °F 70% 30.19 in 10.0 mi WNW 5.8 mph - N/A   Overcast
3:15 AM 40.1 °F 36.1 °F 31.3 °F 71% 30.18 in 10.0 mi WNW 5.8 mph - N/A   Overcast
3:35 AM 39.9 °F 35.8 °F 31.5 °F 72% 30.18 in 10.0 mi WNW 5.8 mph - N/A   Overcast
3:55 AM 39.6 °F 35.4 °F 31.1 °F 72% 30.17 in 10.0 mi WNW 5.8 mph - N/A   Overcast
4:15 AM 39.6 °F 34.7 °F 31.5 °F 73% 30.17 in 10.0 mi WNW 6.9 mph - N/A   Overcast
4:35 AM 39.6 °F 35.4 °F 31.6 °F 73% 30.18 in 10.0 mi WNW 5.8 mph - N/A   Overcast
4:55 AM 39.6 °F 34.7 °F 32.0 °F 74% 30.17 in 10.0 mi WNW 6.9 mph - N/A   Overcast
5:15 AM 39.6 °F 34.7 °F 31.8 °F 74% 30.18 in 10.0 mi WNW 6.9 mph - N/A   Overcast
5:35 AM 39.6 °F 34.7 °F 31.1 °F 72% 30.18 in 10.0 mi WNW 6.9 mph - N/A   Overcast
5:55 AM 39.6 °F 34.7 °F 31.1 °F 72% 30.18 in 10.0 mi WNW 6.9 mph - N/A   Overcast
6:15 AM 39.6 °F 34.0 °F 31.5 °F 73% 30.18 in 10.0 mi WNW 8.1 mph - N/A   Overcast
6:35 AM 39.2 °F 33.0 °F 32.0 °F 75% 30.18 in 10.0 mi WNW 9.2 mph - N/A   Overcast
6:55 AM 39.6 °F 33.5 °F 31.5 °F 73% 30.18 in 10.0 mi WNW 9.2 mph - N/A   Overcast
7:15 AM 39.2 °F 34.2 °F 31.5 °F 74% 30.19 in 10.0 mi WNW 6.9 mph - N/A   Overcast
7:35 AM 38.7 °F 33.6 °F 31.1 °F 74% 30.19 in 10.0 mi WNW 6.9 mph - N/A   Overcast
7:55 AM 39.6 °F 34.0 °F 32.0 °F 74% 30.19 in 10.0 mi NW 8.1 mph - N/A   Overcast
8:15 AM 39.6 °F 34.0 °F 31.5 °F 73% 30.20 in 10.0 mi WNW 8.1 mph - N/A   Overcast
8:35 AM 40.1 °F 34.7 °F 31.1 °F 70% 30.20 in 10.0 mi WNW 8.1 mph - N/A   Overcast
8:55 AM 41.0 °F 36.4 °F 31.3 °F 68% 30.20 in 10.0 mi NW 6.9 mph - N/A   Overcast
9:15 AM 42.1 °F 36.6 °F 30.9 °F 65% 30.21 in 10.0 mi NW 9.2 mph - N/A   Overcast
9:35 AM 43.7 °F 39.7 °F 30.6 °F 60% 30.21 in 10.0 mi NNW 6.9 mph - N/A   Mostly Cloudy
9:55 AM 44.6 °F 39.7 °F 29.3 °F 55% 30.21 in 10.0 mi NW 9.2 mph - N/A   Scattered Clouds
10:15 AM 46.0 °F 41.4 °F 28.8 °F 51% 30.21 in 10.0 mi WNW 9.2 mph - N/A   Clear
10:35 AM 44.8 °F 39.4 °F 21.9 °F 40% 30.21 in 10.0 mi NNW 10.4 mph - N/A   Mostly Cloudy
10:55 AM 45.0 °F 40.1 °F 22.3 °F 41% 30.22 in 10.0 mi WNW 9.2 mph - N/A   Overcast
11:15 AM 45.0 °F 40.1 °F 20.7 °F 38% 30.22 in 10.0 mi NW 9.2 mph - N/A   Overcast
11:35 AM 45.9 °F 42.3 °F 23.0 °F 41% 30.21 in 10.0 mi WNW 6.9 mph 16.1 mph N/A   Overcast
11:55 AM 46.9 °F - 21.7 °F 37% 30.21 in 10.0 mi WNW 10.4 mph 16.1 mph N/A   Mostly Cloudy
12:15 PM 46.0 °F 41.4 °F 22.1 °F 39% 30.21 in 10.0 mi NW 9.2 mph - N/A   Overcast
12:35 PM 46.8 °F - 21.4 °F 37% 30.21 in 10.0 mi West 3.5 mph - N/A   Overcast
12:55 PM 48.4 °F - 22.8 °F 37% 30.21 in 10.0 mi West 8.1 mph - N/A   Overcast
1:15 PM 50.0 °F - 22.8 °F 34% 30.19 in 10.0 mi West 16.1 mph 20.7 mph N/A   Mostly Cloudy
1:35 PM 50.2 °F - 23.2 °F 35% 30.18 in 10.0 mi WSW 13.8 mph 18.4 mph N/A   Mostly Cloudy
1:55 PM 48.7 °F - 22.3 °F 35% 30.18 in 10.0 mi West 8.1 mph 16.1 mph N/A   Mostly Cloudy
2:15 PM 47.8 °F - 21.4 °F 35% 30.17 in 10.0 mi West 4.6 mph 9.2 mph N/A   Clear
2:35 PM 49.6 °F - 23.0 °F 35% 30.16 in 10.0 mi WNW 5.8 mph - N/A   Clear
2:55 PM 49.6 °F - 22.3 °F 34% 30.16 in 10.0 mi West 4.6 mph - N/A   Clear
3:15 PM 49.5 °F - 22.1 °F 34% 30.16 in 10.0 mi West 5.8 mph - N/A   Clear
3:35 PM 50.4 °F - 23.2 °F 35% 30.15 in 10.0 mi West 11.5 mph 19.6 mph N/A   Clear
3:55 PM 49.8 °F - 22.1 °F 34% 30.15 in 10.0 mi West 8.1 mph 18.4 mph N/A   Clear
4:15 PM 49.6 °F - 21.6 °F 33% 30.14 in 10.0 mi West 4.6 mph - N/A   Clear
4:35 PM 49.6 °F - 21.9 °F 34% 30.14 in 10.0 mi West 10.4 mph - N/A   Clear
4:55 PM 49.5 °F - 22.1 °F 34% 30.13 in 10.0 mi West 9.2 mph 19.6 mph N/A   Clear
5:15 PM 49.3 °F - 21.9 °F 34% 30.13 in 10.0 mi West 4.6 mph - N/A   Clear
5:35 PM 49.1 °F - 22.1 °F 35% 30.13 in 10.0 mi WSW 10.4 mph - N/A   Clear
5:55 PM 47.8 °F - 23.2 °F 38% 30.14 in 10.0 mi WSW 8.1 mph - N/A   Clear
6:15 PM 46.2 °F 42.2 °F 23.2 °F 40% 30.14 in 10.0 mi WSW 8.1 mph - N/A   Clear
6:35 PM 44.8 °F 41.6 °F 23.2 °F 43% 30.14 in 10.0 mi WSW 5.8 mph - N/A   Clear
6:55 PM 44.8 °F 41.6 °F 22.8 °F 42% 30.14 in 10.0 mi SW 5.8 mph - N/A   Clear
7:15 PM 44.1 °F 40.8 °F 24.3 °F 46% 30.14 in 10.0 mi SW 5.8 mph - N/A   Clear
7:35 PM 42.1 °F 37.7 °F 24.4 °F 50% 30.15 in 10.0 mi SSW 6.9 mph - N/A   Clear
7:55 PM 42.6 °F 39.0 °F 23.9 °F 48% 30.15 in 10.0 mi SW 5.8 mph - N/A   Clear
8:15 PM 41.4 °F 37.6 °F 24.3 °F 51% 30.15 in 10.0 mi SSW 5.8 mph - N/A   Clear
8:35 PM 41.0 °F 36.4 °F 24.8 °F 53% 30.15 in 10.0 mi SSW 6.9 mph - N/A   Clear
8:55 PM 40.3 °F 37.1 °F 24.6 °F 54% 30.16 in 10.0 mi SSW 4.6 mph - N/A   Clear
9:15 PM 39.7 °F 34.9 °F 25.2 °F 56% 30.16 in 10.0 mi SSW 6.9 mph - N/A   Clear
9:35 PM 38.7 °F 33.6 °F 25.5 °F 59% 30.16 in 10.0 mi SSW 6.9 mph - N/A   Clear
9:55 PM 39.2 °F 34.2 °F 25.7 °F 58% 30.16 in 10.0 mi SSW 6.9 mph - N/A   Clear
10:15 PM 37.8 °F 33.3 °F 25.7 °F 62% 30.16 in 10.0 mi SW 5.8 mph - N/A   Clear
10:35 PM 37.9 °F 32.7 °F 26.4 °F 63% 30.16 in 10.0 mi SW 6.9 mph - N/A   Clear
10:55 PM 36.3 °F 30.8 °F 26.1 °F 66% 30.16 in 10.0 mi SW 6.9 mph - N/A   Clear
11:15 PM 35.6 °F 29.9 °F 25.9 °F 68% 30.16 in 10.0 mi SW 6.9 mph - N/A   Clear
11:35 PM 36.1 °F 31.4 °F 26.2 °F 67% 30.15 in 10.0 mi SSW 5.8 mph - N/A   Clear
11:55 PM 36.5 °F 32.7 °F 25.9 °F 65% 30.15 in 10.0 mi SSW 4.6 mph - N/A   Clear